Regional Weather Roundup
Issued by NWS

Home | Current Version | Previous Version | Graphics & Text | Print | Product List | Glossary On
Versions: 1 2 3 4 5 6 7 8 9 10 11 12 13 14 15 16 17 18 19 20 21 22 23 24 25 26 27 28 29 30 31 32 33 34 35 36 37 38 39 40 41 42 43 44 45 46 47 48 49 50
000
ASUS43 KOAX 150110
RWRNE

WEATHER ROUNDUP FOR NEBRASKA
NATIONAL WEATHER SERVICE OMAHA NE
800 PM CDT SUN SEP 14 2014

NOTES: SATELLITE DATA IS BEING USED TO AUGMENT CLOUD COVER ABOVE
       12000 FEET.
       "FAIR" INDICATES FEW OR NO CLOUDS BELOW 12,000 FEET WITH NO
       SIGNIFICANT WEATHER AND/OR OBSTRUCTIONS TO VISIBILITY.

  * THESE STATIONS DO NOT REPORT WEATHER SUCH AS RAIN...SNOW OR FOG.

NEZ001>004-019>022-054>056-150200-
NEBRASKA PANHANDLE

CITY           SKY/WX    TMP DP  RH WIND       PRES   REMARKS
SCOTTSBLUFF    PTCLDY    62  51  67 N9        30.04R
ALLIANCE       PTCLDY    61  49  64 N14       30.04R
CHADRON        CLEAR     56  44  64 N9        30.08R
KIMBALL        PTCLDY    64  52  66 N12       30.04R
SIDNEY         PTCLDY    68  50  52 E9        30.01R
$$

NEZ057>060-069>072-079>082-150200-
SOUTHWEST NEBRASKA

CITY           SKY/WX    TMP DP  RH WIND       PRES   REMARKS
NORTH PLATTE   CLOUDY    64  57  78 SE7       30.02R
IMPERIAL       LGT RAIN  68  59  73 SE18      29.99R
LEXINGTON      CLOUDY    64  56  75 E7        30.02R
MCCOOK         CLEAR     66  58  75 NE7       29.98R
OGALLALA       MOCLDY    69  59  70 E8        29.99S
$$

NEZ005>010-023>029-035>040-094-150200-
NORTH CENTRAL NEBRASKA

CITY           SKY/WX    TMP DP  RH WIND       PRES   REMARKS
VALENTINE      CLOUDY    56  44  64 NE13      30.08R
AINSWORTH      CLOUDY    57  47  68 NE10      30.07R
BROKEN BOW     CLOUDY    65  54  67 SE7       30.03S
O`NEILL        CLOUDY    61  54  77 NE9       30.07S
ORD            CLOUDY    63  54  72 E6        30.02F
THEDFORD       MOCLDY    64  55  71 E7        30.03S
$$

NEZ041-046>049-061>064-073>077-083>087-150200-
SOUTH CENTRAL NEBRASKA

CITY           SKY/WX    TMP DP  RH WIND       PRES   REMARKS
GRAND ISLAND   CLOUDY    64  54  69 E5        30.04F
AURORA         CLOUDY    63  54  70 E3        30.05S
HASTINGS       PTCLDY    61  52  72 E7        30.03R
HEBRON         PTCLDY    64  52  65 E7        30.00F
HOLDREGE       CLEAR     60  55  84 E8        30.00S
KEARNEY *      MOCLDY    61  54  77 NE7       30.03S
YORK           CLOUDY    64  55  72 SE5       30.05F
$$

NEZ011>018-030>034-042>045-150200-
NORTHEAST NEBRASKA

CITY           SKY/WX    TMP DP  RH WIND       PRES   REMARKS
NORFOLK        CLOUDY    64  53  67 E6        30.07S
ALBION         CLOUDY    64  52  64 E6        30.05F
BLAIR          CLEAR     64  51  64 E3        30.08S
COLUMBUS *     CLOUDY    63  54  72 E5        30.07S
FREMONT        PTCLDY    65  51  59 CALM      30.07S
TEKAMAH        CLOUDY    62  55  77 NE5       30.07F
WAYNE          CLOUDY    60  55  83 E5        30.09S
$$

NEZ050>053-065>068-078-088>093-150200-
SOUTHEAST NEBRASKA

CITY           SKY/WX    TMP DP  RH WIND       PRES   REMARKS
LINCOLN        CLOUDY    67  54  63 SE6       30.06S
OMAHA EPPLEY   MOCLDY    64  53  67 E5        30.07S
BEATRICE       CLOUDY    66  54  63 E6        30.04F
FALLS CITY     CLOUDY    66  56  70 SE5       30.07F
NEBRASKA CITY  CLOUDY    65  49  55 S6        30.08S
PLATTSMOUTH    CLOUDY    64  51  63 E3        30.07S
$$

NEZ044-045-051>053-067-150200-
OMAHA AREA

CITY           SKY/WX    TMP DP  RH WIND       PRES   REMARKS
OMAHA EPPLEY   MOCLDY    64  53  67 E5        30.07S
BLAIR          CLEAR     64  51  64 E3        30.08S
FREMONT        PTCLDY    65  51  59 CALM      30.07S
PLATTSMOUTH    CLOUDY    64  51  63 E3        30.07S
WAHOO          CLOUDY    64  54  70 E5        30.06F
$$


USA.gov is the U.S. government's official web portal to all federal, state and local government web resources and services.